Location: Casco Volunteer Fire Department
(44.5576°N, 87.6146°W)
Time: 18:01:20
(UTC+00:00)

SPOT 1/Viking Rocket - Visible Passes

Search period start: 11 April 2026 00:00
Search period end: 21 April 2026 00:00
Orbit: 773 x 788 km, 98.2° (Epoch: 11 April)

Date Brightness Start Highest point End Pass type
(mag) Time Alt. Az. Time Alt. Az. Time Alt. Az.
13 Apr 6.4 01:00:17 10° SW 01:04:02 20° W 01:07:48 10° NW visible
16 Apr 6.4 01:02:59 10° SW 01:06:35 19° W 01:10:12 10° NW visible
19 Apr 6.4 01:05:42 10° SW 01:09:09 18° W 01:12:35 10° NW visible
